[[{"header":{"parameterUnit":"m.s-1","parameterCategory":1,"la1":30.2991,"la2":30.254,"lo1":-89.0895,"lo2":-89.0444,"dy":0.0017,"dx":0.0017,"nx":28,"ny":28,"refTime":"2024-06-13T09:00:00:Z","depth":0,"parameterNumber":2,"parameterNumberName":"U-component_of_WINDS"},"data":[0,0,0,0,0,0,0,0,0,0,0,0,0,0,0,0,0,0,0,0,0,0,0,0,0,0,0,0,0,0,0,0,0,0,0,0,0,0,0,0,0,0,0,0,0,0,0,0,0,0,0,0,0,0,0,0,0,0,0.2679,0.2679,0,0.2727,0.2728,0.2729,0.2716,0.2715,0.2714,0.2713,0.2764,0.2766,0.2768,0,0,0,0,0,0,0,0,0,0,0,0,0,0.2575,0.2577,0.2679,0.2679,0.268,0.2727,0.2728,0.2729,0.2716,0.2715,0.2714,0.2713,0.2763,0.2766,0.2769,0,0,0,0,0,0,0,0,0,0,0,0,0,0.2622,0.2578,0.2679,0.2679,0.268,0.2727,0.2728,0.2729,0.2716,0.2715,0.2713,0.2712,0.2762,0.2766,0.2769,0.2819,0,0,0.2779,0.2781,0,0,0,0,0,0,0,0,0.2619,0.2626,0.2679,0.2679,0.268,0.2714,0.271,0.2759,0.2717,0.2703,0.2713,0.2711,0.2749,0.2753,0.2765,0.2821,0.2823,0.278,0.2782,0.2783,0.2784,0,0,0,0,0,0,0,0.2616,0.2624,0.2698,0.2679,0.268,0.2677,0.2682,0.2719,0.2733,0.2704,0.2703,0.2709,0.2749,0.2762,0.2767,0.2824,0.278,0.2783,0.2785,0.2786,0.2923,0.2925,0,0,0,0,0,0,0.2612,0.2621,0.2696,0.2699,0.2645,0.268,0.2686,0.2705,0.2733,0.2736,0.271,0.2708,0.2757,0.2763,0.2768,0.2828,0.2783,0.2786,0.2788,0.2921,0.2923,0.2925,0,0,0,0,0,0,0.261,0.2619,0.2694,0.266,0.2669,0.2684,0.2705,0.2706,0.272,0.2737,0.274,0.2721,0.2756,0.2764,0.2806,0.283,0.2788,0.2791,0.292,0.2922,0.2924,0.2949,0,0,0,0,0,0,0.2607,0.2618,0.2637,0.2661,0.2671,0.2732,0.2706,0.2708,0.2726,0.2723,0.2749,0.2751,0.2756,0.2801,0.281,0.2834,0.2794,0.2918,0.2921,0.2924,0.2946,0.2952,0.2956,0,0,0,0,0,0.2603,0.2643,0.2638,0.2648,0.2695,0.2733,0.2739,0.2743,0.2727,0.2747,0.2758,0.2751,0.2826,0.2806,0.2815,0.284,0.2916,0.292,0.2923,0.2943,0.295,0.2956,0,0,0,0,0,0,0.2622,0.2646,0.2641,0.2689,0.2709,0.2731,0.2755,0.275,0.2775,0.2773,0.2777,0.2782,0.2826,0.2838,0.2815,0.289,0.2869,0.2874,0.2881,0.2888,0.2893,0.2889,0.2796,0,0,0,0,0,0.2632,0.266,0.2679,0.2719,0.273,0.2741,0.2757,0.2758,0.2779,0.2788,0.2802,0.2823,0.2852,0.287,0.2897,0.2947,0.2953,0.2969,0.2975,0.2979,0.2984,0.3011,0.3018,0.2937,0.2937,0.2937,0,0,0.2652,0.2668,0.2686,0.2724,0.2739,0.2769,0.2748,0.278,0.2802,0.2793,0.2834,0.2845,0.2869,0.2915,0.2937,0.2926,0.3008,0.2984,0.2987,0.299,0.3015,0.3023,0.303,0.294,0.2939,0.2939,0,0,0.2704,0.2719,0.2754,0.277,0.2794,0.2801,0.2809,0.2832,0.2839,0.288,0.2874,0.29,0.2949,0.2966,0.2981,0.3039,0.3033,0.3048,0.3076,0.3102,0.3108,0.3114,0.3134,0.3141,0.3052,0.3052,0.3052,0,0.2726,0.277,0.2773,0.2805,0.2822,0.2815,0.285,0.2866,0.2897,0.2909,0.2897,0.2958,0.2973,0.3023,0.3038,0.305,0.306,0.3045,0.3107,0.3113,0.3118,0.3137,0.3145,0.3054,0.3054,0.3054,0.3053,0,0.2796,0.2826,0.2852,0.2882,0.2901,0.2935,0.2943,0.2963,0.2962,0.2971,0.3012,0.3031,0.3061,0.3073,0.3073,0.3123,0.3116,0.3106,0.3084,0.3127,0.3146,0.3153,0.3056,0.3056,0.3055,0.3055,0,0,0.2861,0.2892,0.2901,0.2914,0.294,0.2964,0.2997,0.3027,0.3043,0.3065,0.3093,0.3135,0.3125,0.3142,0.3144,0.3167,0.3211,0.3153,0.3154,0.3163,0.3267,0.3274,0.3283,0.3207,0.3209,0.321,0.3265,0,0.2915,0.2973,0.2977,0.303,0.3058,0.3051,0.308,0.3099,0.3108,0.3133,0.3143,0.3172,0.3157,0.3167,0.319,0.3201,0.3232,0.3197,0.3233,0.3235,0.3227,0.3293,0.3301,0.3352,0.3272,0.3273,0.3274,0,0.2985,0.3009,0.3064,0.3086,0.3098,0.3124,0.3151,0.3175,0.3196,0.3201,0.322,0.3218,0.3253,0.323,0.3278,0.3254,0.3269,0.3277,0.3279,0.3282,0.3257,0.3297,0.3368,0.3376,0.3285,0.3285,0.3284,0,0.3026,0.3072,0.3111,0.3123,0.3149,0.3167,0.3179,0.3199,0.3216,0.324,0.3251,0.3279,0.3294,0.3315,0.3321,0.3305,0.3369,0.3347,0.3373,0.3373,0.3387,0.3386,0.3461,0.3397,0.3397,0.3397,0.3397,0,0.3086,0.312,0.313,0.3154,0.3192,0.3196,0.3234,0.3244,0.3262,0.3288,0.3285,0.3309,0.3316,0.3342,0.3347,0.3385,0.3392,0.3397,0.3398,0.3397,0.3396,0.3407,0.3403,0.3399,0.3399,0.3398,0.3398,0,0.3138,0.3146,0.3188,0.3209,0.3215,0.3243,0.3261,0.3284,0.3292,0.3325,0.3333,0.3346,0.3376,0.3384,0.342,0.3424,0.3469,0.3466,0.3461,0.3461,0.3487,0.3484,0.3571,0.3582,0.3512,0.3513,0.3513,0,0.3175,0.3201,0.3225,0.3242,0.3254,0.3282,0.3299,0.3304,0.3322,0.3349,0.3369,0.3398,0.3422,0.3471,0.3484,0.3511,0.3509,0.3538,0.3514,0.3512,0.3509,0.3508,0.351,0.3542,0.3543,0.3544,0.3544,0,0.324,0.3243,0.3268,0.3295,0.3315,0.3337,0.3357,0.3371,0.3379,0.34,0.343,0.3449,0.3486,0.3515,0.3543,0.3556,0.3551,0.3552,0.3559,0.3559,0.3554,0.3557,0.3473,0.355,0.3549,0.3549,0.3549,0.3548,0.3286,0.3308,0.3328,0.3357,0.3372,0.3391,0.3414,0.3425,0.345,0.348,0.3482,0.3515,0.3535,0.3572,0.3586,0.3612,0.3604,0.3615,0.3618,0.362,0.3622,0.3551,0.3618,0.3617,0.3617,0.3617,0.3617,0,0.335,0.3362,0.3388,0.3417,0.3439,0.3432,0.3455,0.3474,0.3503,0.3522,0.3546,0.3581,0.3609,0.3624,0.3652,0.367,0.3669,0.3678,0.3676,0.3679,0.3628,0.3619,0.3678,0.3678,0.3678,0.3678,0.3678,0.3678,0.3386,0.3424,0.3429,0.3475,0.3487,0.3519,0.3532,0.355,0.3565,0.3604,0.3628,0.3637,0.3655,0.3684,0.371,0.3714,0.3724,0.3734,0.3736,0.3689,0.3683,0.3677,0.3668,0.3736,0.3736,0.3785,0.3785,0.3785]},{"header":{"parameterUnit":"m.s-1","parameterCategory":1,"la1":30.2991,"la2":30.254,"lo1":-89.0895,"lo2":-89.0444,"dy":0.0017,"dx":0.0017,"nx":28,"ny":28,"refTime":"2024-06-13T09:00:00:Z","depth":0,"parameterNumber":3,"parameterNumberName":"V-component_of_WINDS"},"data":[0,0,0,0,0,0,0,0,0,0,0,0,0,0,0,0,0,0,0,0,0,0,0,0,0,0,0,0,0,0,0,0,0,0,0,0,0,0,0,0,0,0,0,0,0,0,0,0,0,0,0,0,0,0,0,0,0,0,-0.3686,-0.3687,0,-0.3755,-0.3756,-0.3756,-0.3821,-0.3822,-0.3823,-0.3824,-0.3897,-0.3898,-0.3899,0,0,0,0,0,0,0,0,0,0,0,0,0,-0.3613,-0.3614,-0.3686,-0.3687,-0.3687,-0.3755,-0.3756,-0.3757,-0.3821,-0.3822,-0.3823,-0.3824,-0.3896,-0.3898,-0.3899,0,0,0,0,0,0,0,0,0,0,0,0,0,-0.366,-0.3614,-0.3686,-0.3728,-0.3732,-0.3755,-0.3756,-0.3757,-0.3821,-0.3822,-0.3823,-0.3825,-0.3896,-0.3897,-0.3899,-0.3886,0,0,-0.3905,-0.3905,0,0,0,0,0,0,0,0,-0.3657,-0.3662,-0.3721,-0.3725,-0.373,-0.3781,-0.3757,-0.38,-0.3821,-0.3787,-0.3824,-0.3825,-0.3857,-0.3862,-0.3873,-0.3889,-0.3892,-0.3905,-0.3906,-0.3907,-0.3907,0,0,0,0,0,0,0,-0.3654,-0.366,-0.3713,-0.3722,-0.3727,-0.3744,-0.3752,-0.3765,-0.3815,-0.379,-0.3795,-0.3802,-0.386,-0.3871,-0.3875,-0.3893,-0.3905,-0.3906,-0.3907,-0.3908,-0.3905,-0.3904,0,0,0,0,0,0,-0.3644,-0.3657,-0.3711,-0.3715,-0.3696,-0.3745,-0.3754,-0.3763,-0.3815,-0.3824,-0.3801,-0.3805,-0.3867,-0.3873,-0.3877,-0.3866,-0.3907,-0.3908,-0.3909,-0.3906,-0.3905,-0.3904,0,0,0,0,0,0,-0.3642,-0.3648,-0.3708,-0.3687,-0.3696,-0.3745,-0.3755,-0.3764,-0.3775,-0.3823,-0.3832,-0.3803,-0.3868,-0.3875,-0.3884,-0.387,-0.3909,-0.3911,-0.3908,-0.3906,-0.3904,-0.3843,0,0,0,0,0,0,-0.3639,-0.3647,-0.3641,-0.3687,-0.3697,-0.3712,-0.3754,-0.3764,-0.3777,-0.3783,-0.3827,-0.3835,-0.387,-0.3881,-0.3885,-0.3873,-0.3912,-0.3909,-0.3907,-0.3905,-0.3847,-0.384,-0.3834,0,0,0,0,0,-0.3637,-0.3621,-0.3641,-0.3647,-0.3691,-0.3711,-0.3717,-0.3756,-0.3776,-0.3771,-0.3803,-0.3834,-0.3871,-0.3881,-0.3887,-0.3875,-0.391,-0.3907,-0.3905,-0.385,-0.3841,-0.3834,0,0,0,0,0,0,-0.3573,-0.3628,-0.365,-0.3649,-0.3675,-0.3722,-0.3717,-0.3745,-0.3767,-0.3771,-0.382,-0.3829,-0.3832,-0.3855,-0.3865,-0.3866,-0.3895,-0.3893,-0.3851,-0.3843,-0.3837,-0.3831,-0.3913,0,0,0,0,0,-0.3559,-0.357,-0.3617,-0.3612,-0.3624,-0.3668,-0.3678,-0.3706,-0.3735,-0.3746,-0.3778,-0.3806,-0.3824,-0.3835,-0.3854,-0.3851,-0.3862,-0.3845,-0.3839,-0.3833,-0.3831,-0.3833,-0.3826,-0.3895,-0.3895,-0.3895,0,0,-0.353,-0.3561,-0.3565,-0.36,-0.3623,-0.3634,-0.3677,-0.3686,-0.3695,-0.3748,-0.3758,-0.3783,-0.3817,-0.382,-0.3823,-0.3839,-0.3815,-0.383,-0.3825,-0.3826,-0.3829,-0.3823,-0.3817,-0.3893,-0.3894,-0.3894,0,0,-0.3483,-0.3507,-0.3505,-0.3528,-0.3563,-0.3593,-0.3593,-0.3636,-0.3654,-0.3665,-0.3705,-0.3718,-0.3747,-0.377,-0.3786,-0.375,-0.378,-0.3755,-0.372,-0.3721,-0.3716,-0.3711,-0.3699,-0.3694,-0.3753,-0.3752,-0.3752,0,-0.3442,-0.3459,-0.3501,-0.3509,-0.3523,-0.3572,-0.3572,-0.3592,-0.3631,-0.3641,-0.3658,-0.3698,-0.3724,-0.3734,-0.3725,-0.3736,-0.3738,-0.3749,-0.3713,-0.3709,-0.3705,-0.3694,-0.3689,-0.3749,-0.375,-0.375,-0.375,0,-0.3408,-0.342,-0.3415,-0.3451,-0.3466,-0.3469,-0.3513,-0.3523,-0.355,-0.3579,-0.359,-0.3624,-0.3651,-0.3656,-0.3682,-0.367,-0.3679,-0.3704,-0.3734,-0.3695,-0.3685,-0.3681,-0.3745,-0.3746,-0.3747,-0.3748,0,0,-0.3321,-0.3382,-0.338,-0.3398,-0.3441,-0.3451,-0.3458,-0.3484,-0.3492,-0.3518,-0.3526,-0.3551,-0.3574,-0.3592,-0.3622,-0.3623,-0.3593,-0.3649,-0.365,-0.3637,-0.3583,-0.3564,-0.3558,-0.3614,-0.3613,-0.3613,-0.358,0,-0.3281,-0.3295,-0.3334,-0.3336,-0.3348,-0.3395,-0.3401,-0.3429,-0.3456,-0.3472,-0.3503,-0.3519,-0.3549,-0.3561,-0.3563,-0.3596,-0.3583,-0.3599,-0.3622,-0.3623,-0.3612,-0.3553,-0.3532,-0.35,-0.3577,-0.3576,-0.3576,0,-0.3236,-0.3259,-0.3262,-0.3306,-0.3312,-0.3317,-0.3345,-0.3359,-0.3392,-0.3412,-0.3433,-0.3466,-0.3478,-0.3506,-0.3523,-0.3533,-0.3545,-0.3563,-0.3563,-0.3566,-0.3596,-0.3555,-0.349,-0.3485,-0.357,-0.357,-0.3571,0,-0.3173,-0.3205,-0.3211,-0.3225,-0.3276,-0.3278,-0.33,-0.3334,-0.3348,-0.3374,-0.3384,-0.341,-0.3424,-0.3445,-0.3486,-0.3502,-0.3499,-0.353,-0.3516,-0.3515,-0.3513,-0.3512,-0.3449,-0.3521,-0.3521,-0.3521,-0.3521,0,-0.3124,-0.3124,-0.3184,-0.3187,-0.319,-0.3235,-0.3237,-0.3263,-0.3294,-0.3305,-0.3348,-0.3357,-0.341,-0.3427,-0.3459,-0.3469,-0.3475,-0.3492,-0.3501,-0.3488,-0.3486,-0.3497,-0.35,-0.352,-0.352,-0.352,-0.352,0,-0.3053,-0.3093,-0.3103,-0.3151,-0.3163,-0.3163,-0.3205,-0.3211,-0.3242,-0.3255,-0.3261,-0.3309,-0.3331,-0.3374,-0.3407,-0.3429,-0.3432,-0.3447,-0.342,-0.3425,-0.341,-0.341,-0.3351,-0.3346,-0.342,-0.3419,-0.3418,0,-0.3019,-0.3021,-0.3069,-0.3079,-0.3099,-0.3114,-0.3129,-0.3175,-0.3189,-0.3228,-0.323,-0.3254,-0.3277,-0.3309,-0.3348,-0.3375,-0.3391,-0.3368,-0.3395,-0.3383,-0.3391,-0.339,-0.3391,-0.3362,-0.3361,-0.336,-0.3359,0,-0.2955,-0.2975,-0.2994,-0.302,-0.3036,-0.3059,-0.3085,-0.3091,-0.3143,-0.3157,-0.3179,-0.3196,-0.3231,-0.3255,-0.3288,-0.3312,-0.3344,-0.3351,-0.3349,-0.3336,-0.3321,-0.3329,-0.3404,-0.3352,-0.3352,-0.3353,-0.3353,-0.3354,-0.2902,-0.2906,-0.2941,-0.2961,-0.2985,-0.3008,-0.3017,-0.3049,-0.3068,-0.3099,-0.3125,-0.3145,-0.3181,-0.3228,-0.325,-0.3268,-0.3283,-0.3281,-0.328,-0.3279,-0.3274,-0.3318,-0.3274,-0.3274,-0.3274,-0.3275,-0.3275,0,-0.284,-0.2865,-0.2883,-0.2918,-0.2934,-0.2963,-0.2993,-0.3005,-0.3022,-0.3052,-0.3073,-0.31,-0.3125,-0.3166,-0.3194,-0.3201,-0.3217,-0.3207,-0.3207,-0.3212,-0.3258,-0.3257,-0.3193,-0.3193,-0.3193,-0.3194,-0.3194,-0.3194,-0.281,-0.2818,-0.2842,-0.2864,-0.289,-0.2909,-0.2924,-0.2946,-0.2971,-0.2998,-0.3018,-0.3045,-0.308,-0.3112,-0.3137,-0.3148,-0.3157,-0.3142,-0.3159,-0.3201,-0.3209,-0.3216,-0.3215,-0.3144,-0.3144,-0.3111,-0.3111,-0.3111]}]]